Weather History for Jordan, MT

Change the Weather History Date:

Saturday, August 17, 2013

  Actual Average Record
Temperature  
Mean Temperature 74 °F 69 °F  
Max Temperature 92 °F 86 °F 103 °F (1958)
Min Temperature 56 °F 53 °F 32 °F (1905)
Degree Days  
Heating Degree Days 0 1  
Month to date heating degree days 7 14  
Since 1 June heating degree days 108 164  
Since 1 July heating degree days 13 39  
Cooling Degree Days 9 5  
Month to date cooling degree days 63 110  
Year to date cooling degree days 312 341  
Since 1 June cooling degree days 300 335  
Growing Degree Days 25 (Base 50)    
Moisture  
Dew Point 51 °F    
Average Humidity 48    
Maximum Humidity 75    
Minimum Humidity 20    
Precipitation  
Precipitation 0.00 in 0.05 in 1.20 in (1954)
Month to date precipitation 0.88 0.78  
Year to date precipitation 13.74 9.51  
Snow  
Snow 0.00 in - - ()
Month to date snowfall 0.0  
Since 1 June snowfall 0.0  
Since 1 July snowfall 0.0  
Snow Depth 0.00 in    
Sea Level Pressure  
Sea Level Pressure 29.86 in    
Wind  
Wind Speed 7 mph (NNW)    
Max Wind Speed 23 mph    
Max Gust Speed 28 mph    
T = Trace of Precipitation, MM = Missing Value Source: NWS Daily Summary

Daily Weather History Graph

Daily Weather History Graph

Search for Another Location

Airport:

Trip Planner

Search our weather history database for the weather conditions in past years. The results will help you decide how hot, cold, wet, or windy it might be!

Date:

Astronomy

Aug. 17, 2013 Rise Set
Actual Time 6:07 AM MDT 8:15 PM MDT
Civil Twilight 5:33 AM MDT 8:48 PM MDT
Nautical Twilight 4:52 AM MDT 9:29 PM MDT
Astronomical Twilight 4:06 AM MDT 10:15 PM MDT
Moon 5:39 PM MDT (8/17) 2:05 AM MDT (8/17)
Length of Visible Light 15h 14m
Length of Day
14h 08m
Waxing Gibbous, 85% of the Moon is Illuminated
Aug 17
Waxing Gibbous
Aug 20
Full
Aug 28
Last Quarter
Sep 5
New
Sep 12
First Quarter

Hourly Weather History & Observations

Time (MDT) Temp. Heat Index Dew Point Humidity Pressure Visibility Wind Dir Wind Speed Gust Speed Precip Events Conditions
12:48 AM 73.0 °F - 53.1 °F 49% 29.81 in - Variable 3.5 mph - N/A   Unknown
1:48 AM 75.9 °F - 54.0 °F 46% 29.81 in - West 9.2 mph - N/A   Unknown
2:48 AM 66.0 °F - 54.0 °F 65% 29.81 in - Calm Calm - N/A   Unknown
3:48 AM 64.0 °F - 53.1 °F 67% 29.81 in - SE 4.6 mph - N/A   Unknown
4:48 AM 64.0 °F - 53.1 °F 67% 29.81 in - NW 4.6 mph - N/A   Unknown
5:48 AM 59.0 °F - 51.1 °F 75% 29.82 in - Calm Calm - N/A   Unknown
6:48 AM 60.1 °F - 52.0 °F 75% 29.84 in - WNW 6.9 mph - N/A   Unknown
7:48 AM 62.1 °F - 53.1 °F 72% 29.86 in - West 3.5 mph - N/A   Unknown
8:48 AM 73.9 °F - 53.1 °F 48% 29.86 in - NW 12.7 mph - N/A   Unknown
9:48 AM 78.1 °F - 51.1 °F 39% 29.87 in - NNW 12.7 mph - N/A   Unknown
10:48 AM 82.0 °F - 52.0 °F 35% 29.88 in - NNW 15.0 mph - N/A   Unknown
11:48 AM 84.0 °F - 48.0 °F 28% 29.88 in - NNW 19.6 mph 27.6 mph N/A   Unknown
12:48 PM 86.0 °F - 46.9 °F 26% 29.88 in - NNW 20.7 mph 26.5 mph N/A   Unknown
1:48 PM 89.1 °F - 46.9 °F 23% 29.87 in - NNW 17.3 mph 25.3 mph N/A   Unknown
2:48 PM 90.0 °F - 46.0 °F 22% 29.87 in - North 12.7 mph - N/A   Unknown
3:48 PM 91.0 °F - 45.0 °F 20% 29.87 in - NNW 10.4 mph 19.6 mph N/A   Unknown
4:48 PM 91.0 °F - 46.0 °F 21% 29.86 in - North 5.8 mph - N/A   Unknown
5:48 PM 91.0 °F - 46.0 °F 21% 29.87 in - NNE 4.6 mph - N/A   Unknown
6:48 PM 86.0 °F - 48.0 °F 27% 29.87 in - NE 5.8 mph - N/A   Unknown
7:48 PM 81.0 °F 80.5 °F 54.0 °F 39% 29.86 in - NE 4.6 mph - N/A   Unknown
8:48 PM 73.9 °F - 53.1 °F 48% 29.87 in - Calm Calm - N/A   Unknown
9:48 PM 73.0 °F - 52.0 °F 48% 29.88 in - Calm Calm - N/A   Unknown
10:48 PM 70.0 °F - 52.0 °F 53% 29.88 in - Calm Calm - N/A   Unknown
11:48 PM 64.0 °F - 51.1 °F 63% 29.89 in - Calm Calm - N/A   Unknown